TimeCST,TemperatureF,Dew PointF,Humidity,Sea Level PressureIn,VisibilityMPH,Wind Direction,Wind SpeedMPH,Gust SpeedMPH,PrecipitationIn,Events,Conditions,WindDirDegrees,DateUTC
12:15 AM,62.1,59.2,90,29.80,7.0,South,16.1,26.5,N/A,,Clear,170,2013-01-29 06:15:00
12:35 AM,62.1,59.2,90,29.80,7.0,South,16.1,25.3,N/A,,Clear,170,2013-01-29 06:35:00
12:55 AM,61.7,59.0,91,29.79,7.0,South,17.3,23.0,N/A,,Clear,170,2013-01-29 06:55:00
1:15 AM,61.3,59.0,92,29.78,7.0,South,13.8,21.9,N/A,,Clear,170,2013-01-29 07:15:00
1:35 AM,61.0,59.0,93,29.78,7.0,South,13.8,-,N/A,,Clear,180,2013-01-29 07:35:00
1:55 AM,61.0,59.2,94,29.77,7.0,South,13.8,-,N/A,,Clear,170,2013-01-29 07:55:00
2:15 AM,61.0,59.2,94,29.77,7.0,South,13.8,-,N/A,,Clear,170,2013-01-29 08:15:00
2:35 AM,60.8,59.0,94,29.77,7.0,South,16.1,20.7,N/A,,Clear,170,2013-01-29 08:35:00
2:55 AM,60.8,59.0,94,29.76,7.0,South,17.3,-,N/A,,Scattered Clouds,170,2013-01-29 08:55:00
3:15 AM,60.8,59.0,94,29.75,7.0,South,15.0,23.0,N/A,,Clear,170,2013-01-29 09:15:00
3:35 AM,61.0,59.0,93,29.75,7.0,South,13.8,20.7,N/A,,Clear,180,2013-01-29 09:35:00
3:55 AM,61.0,59.0,93,29.75,7.0,South,13.8,-,N/A,,Scattered Clouds,180,2013-01-29 09:55:00
4:15 AM,61.2,58.8,92,29.73,10.0,South,13.8,17.3,N/A,,Scattered Clouds,170,2013-01-29 10:15:00
4:35 AM,61.3,58.6,91,29.73,10.0,South,15.0,18.4,N/A,,Clear,170,2013-01-29 10:35:00
4:55 AM,61.9,59.0,90,29.72,10.0,South,15.0,-,N/A,,Clear,180,2013-01-29 10:55:00
5:15 AM,62.4,59.0,89,29.72,10.0,South,15.0,24.2,N/A,,Scattered Clouds,170,2013-01-29 11:15:00
5:35 AM,62.8,59.2,88,29.73,10.0,South,12.7,17.3,N/A,,Mostly Cloudy,190,2013-01-29 11:35:00
5:55 AM,63.0,59.2,87,29.74,10.0,SSW,13.8,-,N/A,,Overcast,200,2013-01-29 11:55:00
6:15 AM,62.8,59.7,90,29.73,10.0,SSW,15.0,-,N/A,Rain,Light Rain,200,2013-01-29 12:15:00
6:35 AM,63.1,59.5,88,29.72,10.0,South,12.7,-,N/A,Rain,Light Rain,170,2013-01-29 12:35:00
6:55 AM,61.9,59.2,91,29.72,7.0,South,10.4,-,N/A,,Mostly Cloudy,170,2013-01-29 12:55:00
7:15 AM,61.5,59.0,91,29.72,7.0,South,12.7,17.3,N/A,,Scattered Clouds,170,2013-01-29 13:15:00
7:35 AM,61.7,59.0,91,29.71,7.0,South,11.5,-,N/A,,Scattered Clouds,170,2013-01-29 13:35:00
7:55 AM,61.5,59.0,91,29.71,7.0,South,13.8,18.4,N/A,,Clear,170,2013-01-29 13:55:00
8:15 AM,61.9,59.4,91,29.70,7.0,South,12.7,-,N/A,,Clear,170,2013-01-29 14:15:00
8:35 AM,62.4,59.7,91,29.69,7.0,South,13.8,-,N/A,,Clear,170,2013-01-29 14:35:00
8:55 AM,62.8,59.9,90,29.69,7.0,South,12.7,20.7,N/A,,Clear,170,2013-01-29 14:55:00
9:15 AM,63.5,60.1,89,29.69,7.0,South,15.0,-,N/A,,Clear,170,2013-01-29 15:15:00
9:35 AM,64.0,60.4,88,29.68,10.0,South,18.4,23.0,N/A,,Clear,180,2013-01-29 15:35:00
9:55 AM,64.8,60.8,87,29.68,10.0,South,16.1,20.7,N/A,,Clear,170,2013-01-29 15:55:00
10:15 AM,65.3,61.0,86,29.68,10.0,South,16.1,23.0,N/A,,Clear,170,2013-01-29 16:15:00
10:35 AM,65.5,61.0,85,29.67,10.0,South,15.0,20.7,N/A,,Scattered Clouds,170,2013-01-29 16:35:00
10:55 AM,66.0,61.0,84,29.65,10.0,South,12.7,17.3,N/A,,Scattered Clouds,170,2013-01-29 16:55:00
11:15 AM,66.4,60.8,82,29.65,10.0,South,17.3,25.3,N/A,,Mostly Cloudy,170,2013-01-29 17:15:00
11:35 AM,67.3,61.2,81,29.63,10.0,South,18.4,23.0,N/A,,Scattered Clouds,170,2013-01-29 17:35:00
11:55 AM,67.8,61.0,79,29.62,10.0,South,20.7,28.8,N/A,,Scattered Clouds,170,2013-01-29 17:55:00
12:15 PM,68.0,60.8,78,29.60,10.0,South,17.3,25.3,N/A,,Scattered Clouds,170,2013-01-29 18:15:00
12:35 PM,67.3,60.6,79,29.58,10.0,South,17.3,25.3,N/A,,Mostly Cloudy,170,2013-01-29 18:35:00
12:55 PM,67.5,60.6,79,29.57,10.0,South,18.4,25.3,N/A,,Mostly Cloudy,170,2013-01-29 18:55:00
1:15 PM,67.5,60.8,79,29.55,10.0,South,17.3,28.8,N/A,,Mostly Cloudy,170,2013-01-29 19:15:00
1:35 PM,67.6,60.8,79,29.52,10.0,SSE,18.4,32.2,N/A,,Scattered Clouds,160,2013-01-29 19:35:00
1:55 PM,66.6,60.8,82,29.52,10.0,South,24.2,29.9,N/A,,Mostly Cloudy,170,2013-01-29 19:55:00
2:15 PM,65.5,60.8,85,29.50,10.0,SSE,20.7,28.8,N/A,,Overcast,160,2013-01-29 20:15:00
2:35 PM,65.3,60.8,85,29.49,10.0,SSE,16.1,24.2,N/A,,Overcast,160,2013-01-29 20:35:00
2:55 PM,65.3,60.4,84,29.49,10.0,SSE,17.3,26.5,N/A,,Overcast,160,2013-01-29 20:55:00
3:15 PM,65.3,60.3,84,29.47,10.0,SSE,15.0,23.0,N/A,,Mostly Cloudy,160,2013-01-29 21:15:00
3:35 PM,58.5,55.4,90,29.51,4.0,NW,20.7,34.5,0.04,Rain-Thunderstorm,Rain,310,2013-01-29 21:35:00
3:55 PM,57.4,56.1,96,29.53,5.0,WNW,15.0,-,0.15,Rain,Heavy Rain,300,2013-01-29 21:55:00
4:15 PM,57.2,55.9,96,29.52,5.0,WNW,11.5,-,0.09,Rain-Thunderstorm,Thunderstorms and Rain,290,2013-01-29 22:15:00
4:35 PM,57.2,55.9,96,29.54,5.0,WNW,9.2,-,0.19,Rain-Thunderstorm,Heavy Thunderstorms and Rain,290,2013-01-29 22:35:00
4:55 PM,57.2,56.3,97,29.54,5.0,NW,11.5,-,0.26,Rain-Thunderstorm,Heavy Thunderstorms and Rain,310,2013-01-29 22:55:00
5:15 PM,57.0,56.1,97,29.52,7.0,NNW,10.4,-,0.03,Rain,Rain,330,2013-01-29 23:15:00
5:35 PM,56.8,55.9,97,29.54,7.0,NNW,5.8,-,0.09,Rain,Heavy Rain,330,2013-01-29 23:35:00
5:55 PM,56.5,55.6,97,29.53,7.0,NNW,4.6,-,0.15,Rain,Rain,340,2013-01-29 23:55:00
6:15 PM,56.3,55.4,97,29.53,10.0,NNW,4.6,-,0.02,Rain,Rain,330,2013-01-30 00:15:00
6:35 PM,56.3,55.4,97,29.51,7.0,NNE,5.8,-,0.05,Rain,Rain,20,2013-01-30 00:35:00
6:55 PM,55.8,54.7,96,29.50,10.0,ENE,6.9,-,0.07,Rain,Light Rain,60,2013-01-30 00:55:00
7:15 PM,55.4,54.5,97,29.51,7.0,East,3.5,-,0.02,Rain,Rain,80,2013-01-30 01:15:00
7:35 PM,54.9,54.0,97,29.49,7.0,NE,4.6,-,0.06,Rain,Rain,40,2013-01-30 01:35:00
7:55 PM,54.9,54.0,97,29.51,5.0,SE,4.6,-,0.08,Rain,Rain,130,2013-01-30 01:55:00
8:15 PM,55.0,54.1,97,29.52,7.0,Calm,Calm,-,0.02,Rain-Thunderstorm,Rain,0,2013-01-30 02:15:00
8:35 PM,55.0,54.5,98,29.52,5.0,Calm,Calm,-,0.06,Rain,Rain,0,2013-01-30 02:35:00
8:55 PM,54.9,54.1,97,29.53,5.0,Calm,Calm,-,0.11,Rain,Rain,0,2013-01-30 02:55:00
9:15 PM,54.5,53.8,97,29.53,5.0,SE,3.5,-,0.04,Rain,Rain,140,2013-01-30 03:15:00
9:35 PM,54.5,53.8,97,29.51,1.8,ESE,4.6,-,0.07,Rain,Rain,120,2013-01-30 03:35:00
9:55 PM,54.5,53.8,97,29.50,5.0,SE,5.8,-,0.10,Rain,Rain,130,2013-01-30 03:55:00
10:15 PM,54.0,53.2,97,29.47,3.0,SE,6.9,-,0.02,Rain,Light Rain,130,2013-01-30 04:15:00
10:35 PM,54.0,53.2,97,29.47,5.0,SSE,3.5,-,0.02,Rain,Rain,150,2013-01-30 04:35:00
10:55 PM,53.6,52.9,97,29.45,7.0,SE,6.9,-,0.04,Rain,Rain,130,2013-01-30 04:55:00
11:15 PM,53.6,52.9,97,29.44,10.0,SE,8.1,-,0.01,Rain,Light Rain,130,2013-01-30 05:15:00
11:35 PM,53.6,52.9,97,29.43,10.0,SE,6.9,-,0.02,Rain,Light Rain,140,2013-01-30 05:35:00
11:55 PM,53.1,52.3,97,29.41,10.0,SE,8.1,-,0.03,Rain,Light Rain,130,2013-01-30 05:55:00